JES3161 SABE-SAZN

Flight info

Callsign JES3161
Flight time N/A
Altitude 36000
Route PAL9 TORUL UT654 BIXIM UT669 ROPON ROPON3Q
Aircraft A321/M-SDE3FGHIRWY/LB1

Departure

Time 2026-05-07 00:05
Airport Aeroparque Jorge Newbery (SABE)

Arrival

Time N/A
Airport Presidente Perón International Airport (SAZN)
Time Latitude Longitude Altitude Speed Heading
2026-05-06 23:42 -34.55822 -58.41212 25 ft 0 kts 35°
2026-05-06 23:55 -34.55823 -58.41213 25 ft 1 kts 35°
2026-05-06 23:55 -34.55829 -58.41219 24 ft 1 kts 35°
2026-05-06 23:55 -34.55837 -58.41226 28 ft 2 kts 32°
2026-05-06 23:56 -34.55852 -58.41232 25 ft 2 kts 349°
2026-05-06 23:56 -34.55864 -58.41228 27 ft 2 kts 328°
2026-05-06 23:56 -34.55871 -58.41222 25 ft 1 kts 321°
2026-05-06 23:56 -34.55878 -58.41216 27 ft 2 kts 312°
2026-05-06 23:57 -34.55879 -58.41215 27 ft 0 kts 310°
2026-05-07 00:00 -34.55877 -58.41218 28 ft 2 kts 310°
2026-05-07 00:00 -34.55865 -58.41249 28 ft 6 kts 281°
2026-05-07 00:00 -34.55889 -58.41297 25 ft 7 kts 213°
2026-05-07 00:00 -34.55927 -58.41294 24 ft 5 kts 154°
2026-05-07 00:01 -34.55947 -58.41268 24 ft 4 kts 128°
2026-05-07 00:01 -34.55975 -58.41224 25 ft 9 kts 127°
2026-05-07 00:01 -34.56020 -58.41150 25 ft 13 kts 126°
2026-05-07 00:01 -34.56082 -58.41046 24 ft 17 kts 126°
2026-05-07 00:02 -34.56166 -58.40915 24 ft 22 kts 128°
2026-05-07 00:02 -34.56266 -58.40765 24 ft 20 kts 129°
2026-05-07 00:02 -34.56332 -58.40656 24 ft 15 kts 124°
2026-05-07 00:02 -34.56385 -58.40560 26 ft 13 kts 123°
2026-05-07 00:03 -34.56413 -58.40509 24 ft 5 kts 123°
2026-05-07 00:03 -34.56431 -58.40477 26 ft 4 kts 124°
2026-05-07 00:03 -34.56460 -58.40436 24 ft 11 kts 141°
2026-05-07 00:03 -34.56515 -58.40450 24 ft 8 kts 234°
2026-05-07 00:04 -34.56514 -58.40510 24 ft 8 kts 294°
2026-05-07 00:04 -34.56428 -58.40669 24 ft 54 kts 304°
2026-05-07 00:04 -34.56083 -58.41282 25 ft 120 kts 303°
2026-05-07 00:04 -34.55517 -58.42299 66 ft 164 kts 306°
2026-05-07 00:05 -34.54911 -58.43428 808 ft 157 kts 309°
2026-05-07 00:05 -34.54348 -58.44505 1674 ft 145 kts 312°
2026-05-07 00:05 -34.53830 -58.45518 2283 ft 141 kts 311°
2026-05-07 00:05 -34.53265 -58.46526 2607 ft 148 kts 313°
2026-05-07 00:06 -34.52661 -58.47572 2938 ft 158 kts 306°
2026-05-07 00:06 -34.52538 -58.49022 3138 ft 199 kts 266°
2026-05-07 00:06 -34.53375 -58.50526 3467 ft 233 kts 235°
2026-05-07 00:06 -34.54628 -58.51910 3608 ft 256 kts 232°
2026-05-07 00:07 -34.56049 -58.53417 3737 ft 282 kts 230°
2026-05-07 00:07 -34.57533 -58.54962 4503 ft 281 kts 230°
2026-05-07 00:07 -34.59011 -58.56493 5253 ft 280 kts 230°
2026-05-07 00:07 -34.60499 -58.58028 6040 ft 279 kts 230°
2026-05-07 00:08 -34.61974 -58.59561 6729 ft 279 kts 231°
2026-05-07 00:08 -34.63408 -58.61163 7345 ft 281 kts 232°
2026-05-07 00:08 -34.64833 -58.62811 7962 ft 285 kts 232°
2026-05-07 00:08 -34.66279 -58.64481 8580 ft 288 kts 232°
2026-05-07 00:09 -34.67749 -58.66163 9199 ft 292 kts 231°
2026-05-07 00:09 -34.69242 -58.67860 9794 ft 296 kts 231°
2026-05-07 00:09 -34.70792 -58.69629 9940 ft 316 kts 231°
2026-05-07 00:09 -34.72446 -58.71516 10067 ft 335 kts 230°
2026-05-07 00:10 -34.74184 -58.73490 10339 ft 347 kts 230°
2026-05-07 00:10 -34.75972 -58.75503 10860 ft 352 kts 229°
2026-05-07 00:10 -34.77776 -58.77526 11424 ft 355 kts 229°
2026-05-07 00:10 -34.79623 -58.79596 11993 ft 357 kts 229°
2026-05-07 00:11 -34.81454 -58.81652 12571 ft 360 kts 230°
2026-05-07 00:11 -34.83274 -58.83705 13122 ft 363 kts 230°
2026-05-07 00:11 -34.85132 -58.85803 13656 ft 366 kts 230°
2026-05-07 00:11 -34.87005 -58.87918 14169 ft 369 kts 230°
2026-05-07 00:12 -34.88917 -58.90077 14707 ft 371 kts 230°
2026-05-07 00:12 -34.90810 -58.92220 15233 ft 373 kts 230°
2026-05-07 00:12 -34.92681 -58.94340 15746 ft 376 kts 230°
2026-05-07 00:12 -34.94614 -58.96529 16273 ft 378 kts 230°
2026-05-07 00:13 -34.96575 -58.98748 16782 ft 381 kts 230°
2026-05-07 00:13 -34.97866 -59.00211 17123 ft 383 kts 230°
2026-05-07 00:13 -35.00486 -59.03190 17795 ft 387 kts 230°
2026-05-07 00:13 -35.02453 -59.05429 18248 ft 389 kts 230°
2026-05-07 00:14 -35.03767 -59.06923 18537 ft 390 kts 230°
2026-05-07 00:14 -35.05760 -59.09191 18998 ft 392 kts 230°
2026-05-07 00:14 -35.07758 -59.11466 19432 ft 394 kts 230°
2026-05-07 00:14 -35.09768 -59.13755 19865 ft 396 kts 230°
2026-05-07 00:15 -35.11780 -59.16051 20307 ft 397 kts 230°
2026-05-07 00:15 -35.13807 -59.18365 20762 ft 399 kts 230°
2026-05-07 00:15 -35.15840 -59.20688 21184 ft 401 kts 230°
2026-05-07 00:15 -35.17881 -59.23021 21614 ft 403 kts 230°
2026-05-07 00:16 -35.19931 -59.25367 22045 ft 405 kts 230°
2026-05-07 00:16 -35.21990 -59.27725 22460 ft 407 kts 230°
2026-05-07 00:16 -35.24059 -59.30097 22874 ft 409 kts 230°
2026-05-07 00:16 -35.26136 -59.32480 23265 ft 411 kts 230°
2026-05-07 00:17 -35.28227 -59.34878 23595 ft 413 kts 230°
2026-05-07 00:17 -35.30329 -59.37288 23934 ft 415 kts 230°
2026-05-07 00:17 -35.32440 -59.39708 24274 ft 416 kts 230°
2026-05-07 00:17 -35.34557 -59.42138 24596 ft 418 kts 230°
2026-05-07 00:18 -35.36555 -59.44702 24905 ft 413 kts 238°
2026-05-07 00:18 -35.38248 -59.47530 25220 ft 412 kts 241°
2026-05-07 00:18 -35.39920 -59.50396 25535 ft 414 kts 241°
2026-05-07 00:18 -35.41599 -59.53267 25845 ft 416 kts 241°
2026-05-07 00:19 -35.43289 -59.56155 26151 ft 418 kts 241°
2026-05-07 00:19 -35.44988 -59.59056 26454 ft 420 kts 241°
2026-05-07 00:19 -35.46694 -59.61971 26753 ft 422 kts 242°
2026-05-07 00:19 -35.48404 -59.64902 27051 ft 423 kts 242°
2026-05-07 00:20 -35.50143 -59.67888 27346 ft 425 kts 242°
2026-05-07 00:20 -35.51846 -59.70807 27639 ft 427 kts 242°
2026-05-07 00:20 -35.53580 -59.73778 27931 ft 429 kts 242°
2026-05-07 00:20 -35.55329 -59.76775 28218 ft 430 kts 242°
2026-05-07 00:21 -35.57071 -59.79768 28500 ft 432 kts 242°
2026-05-07 00:21 -35.58817 -59.82777 28791 ft 433 kts 242°
2026-05-07 00:21 -35.60567 -59.85797 29047 ft 434 kts 242°
2026-05-07 00:21 -35.62322 -59.88823 29329 ft 436 kts 242°
2026-05-07 00:22 -35.64084 -59.91863 29610 ft 437 kts 243°
2026-05-07 00:22 -35.65849 -59.94905 29863 ft 438 kts 243°
2026-05-07 00:22 -35.67616 -59.97962 30155 ft 437 kts 243°